Miscellaneous Local Product
Issued by NWS Hastings, NE

Home | Current Version | Previous Version | Text Only | Print | Product List | Glossary On
Versions: 1 2 3 4 5 6 7 8 9 10 11 12 13 14 15 16 17 18 19 20 21 22 23 24 25 26 27 28 29 30 31 32 33 34 35 36 37 38 39 40 41 42 43 44 45 46 47 48 49 50
000
AXUS43 KGID 251602
MISGRI

GID CWA HOURLY WEATHER ROUNDUP
NATIONAL WEATHER SERVICE HASTINGS NE
1100 AM CDT FRI MAY 25 2018

NOTE: "FAIR" INDICATES FEW OR NO CLOUDS BELOW 12,000 FEET WITH NO
SIGNIFICANT WEATHER AND/OR OBSTRUCTIONS TO VISIBILITY.

...SOUTH CENTRAL NEBRASKA...

CITY           SKY/WX    TMP DP  RH WIND       PRES   REMARKS
GRAND ISLAND   SUNNY     82  56  40 W7        29.91S
KEARNEY        SUNNY     80  54  40 SW10      29.92S
HASTINGS       SUNNY     80  56  43 SW10      29.92F
ORD            SUNNY     82  58  43 VRB5      29.87F
YORK           SUNNY     81  57  44 W10       29.90S
AURORA         PTSUNNY   78  54  43 SW9       29.90F
LEXINGTON      SUNNY     81  59  47 W6        29.92S
HOLDREGE       SUNNY     79  56  45 SW8G16    29.93S
HEBRON         SUNNY     83  58  42 W8        29.91S

...NEBRASKA PANHANDLE...

CITY           SKY/WX    TMP DP  RH WIND       PRES   REMARKS
CHADRON        SUNNY     76  55  48 W10       29.96S
ALLIANCE       SUNNY     79  53  40 W10       29.98S
SCOTTSBLUFF    SUNNY     73  55  53 W9        30.01F
SIDNEY         SUNNY     81  51  35 NW12      30.03F

...WESTERN AND NORTH CENTRAL NEBRASKA...

CITY           SKY/WX    TMP DP  RH WIND       PRES   REMARKS
VALENTINE      SUNNY     82  58  43 NW6       29.88F
AINSWORTH      SUNNY     80  60  51 W7        29.89F
ONEILL         SUNNY     84  63  48 CALM      29.88S
BROKEN BOW     SUNNY     83  59  44 VRB3      29.90F
IMPERIAL       SUNNY     84  49  29 W9        29.97F
NORTH PLATTE   SUNNY     80  60  50 W7        29.93F
MCCOOK         SUNNY     80  57  45 W7        29.94F

...EASTERN NEBRASKA...

CITY           SKY/WX    TMP DP  RH WIND       PRES   REMARKS
NORFOLK        SUNNY     85  63  47 NW5       29.83S
SO SIOUX CITY  SUNNY     82  66  58 SW3       29.83F
TEKAMAH        SUNNY     80  65  59 W3        29.84F
COLUMBUS       SUNNY     83  60  45 W9        29.87F
ALBION         SUNNY     82  61  48 W8        29.87F
OMAHA EPPLEY   MOSUNNY   81  62  52 SW7       29.85F
OFFUTT AFB     SUNNY     81  64  56 W5        29.85F
MILLARD        SUNNY     82  65  56 W5        29.86S
LINCOLN        SUNNY     85  57  38 W9        29.88F
NEBRASKA CITY  PTSUNNY   80  66  61 S10       29.89S
BEATRICE       MOSUNNY   80  62  53 S10       29.91S
FALLS CITY     CLOUDY    78  64  61 SW15      29.90F

...NORTHERN KANSAS...

CITY           SKY/WX    TMP DP  RH WIND       PRES   REMARKS
GOODLAND       SUNNY     82  57  42 NW8       29.99F
HILL CITY      SUNNY     75  65  70 SW7       29.96F
NORTON         SUNNY     79  61  53 SW6       29.95S
PHILLIPSBURG   SUNNY     75  63  64 SW8       29.95F
SMITH CENTER   SUNNY     79  63  57 SW13      29.93F
HAYS           SUNNY     77  65  66 S9        29.95F
RUSSELL        SUNNY     77  66  68 S15       29.92F
CONCORDIA      SUNNY     80  62  54 W6        29.93R
SALINA         SUNNY     82  66  58 CALM      29.92S
TOPEKA         MOSUNNY   74  68  81 SW6       29.93R



USA.gov is the U.S. government's official web portal to all federal, state and local government web resources and services.